Weather History for Nashville, TN

Change the Weather History Date:

Wednesday, February 22, 2012

  Actual Average Record
Temperature  
Mean Temperature 47 °F 44 °F  
Max Temperature 58 °F 54 °F 74 °F (1897)
Min Temperature 35 °F 33 °F 2 °F (1963)
Degree Days  
Heating Degree Days 18 21  
Month to date heating degree days 471 530  
Since 1 July heating degree days 2410 2815  
Cooling Degree Days 0 0  
Month to date cooling degree days 0 0  
Year to date cooling degree days 0 0  
Moisture  
Dew Point 44 °F    
Average Humidity 79    
Maximum Humidity 100    
Minimum Humidity 57    
Precipitation  
Precipitation 0.27 in 0.15 in 2.58 in (1874)
Month to date precipitation 2.42 3.09  
Year to date precipitation 7.55 6.84  
Snow  
Snow 0.00 in 0.10 in 2.00 in (1947)
Month to date snowfall 0.2 2.0  
Since 1 July snowfall 0.4 5.1  
Snow Depth 0.00 in    
Sea Level Pressure  
Sea Level Pressure 29.72 in    
Wind  
Wind Speed 7 mph (SSW)    
Max Wind Speed 17 mph    
Max Gust Speed 24 mph    
Visibility 9 miles    
Events Rain , Thunderstorm    
T = Trace of Precipitation, MM = Missing Value Source: NWS Daily Summary

Daily Weather History Graph

Daily Weather History Graph

Search for Another Location

Airport:

Trip Planner

Search our weather history database for the weather conditions in past years. The results will help you decide how hot, cold, wet, or windy it might be!

Date:

Astronomy

Feb. 22, 2012 Rise Set
Actual Time 6:26 AM CST 5:34 PM CST
Civil Twilight 6:00 AM CST 6:00 PM CST
Nautical Twilight 5:30 AM CST 6:30 PM CST
Astronomical Twilight 5:01 AM CST 7:00 PM CST
Moon 6:27 AM CST (2/22) 6:36 PM CST (2/22)
Length of Visible Light 11h 59m
Length of Day
11h 07m
New Moon, 1% of the Moon is Illuminated
Feb 22
New Moon
Feb 29
First Quarter
Mar 8
Full
Mar 14
Last Quarter
Mar 22
New

Hourly Weather History & Observations

Time (CST) Temp. Windchill Dew Point Humidity Pressure Visibility Wind Dir Wind Speed Gust Speed Precip Events Conditions
12:53 AM 37.0 °F 32.4 °F 28.9 °F 73% 29.94 in 10.0 mi South 5.8 mph - N/A   Clear
1:53 AM 37.9 °F 33.5 °F 28.0 °F 68% 29.92 in 10.0 mi South 5.8 mph - N/A   Clear
2:53 AM 35.1 °F 30.1 °F 28.0 °F 76% 29.88 in 10.0 mi South 5.8 mph - N/A   Clear
3:53 AM 37.9 °F 34.4 °F 27.0 °F 65% 29.86 in 10.0 mi South 4.6 mph - N/A   Clear
4:53 AM 39.9 °F 35.1 °F 26.1 °F 58% 29.84 in 10.0 mi SSE 6.9 mph - N/A   Partly Cloudy
5:53 AM 42.8 °F 38.0 °F 28.4 °F 57% 29.79 in 10.0 mi SSE 8.1 mph - N/A   Scattered Clouds
6:35 AM 44.6 °F 42.2 °F 30.2 °F 57% 29.80 in 8.0 mi Variable 4.6 mph - 0.00 in Rain , Thunderstorm Light Thunderstorms and Rain
6:53 AM 41.0 °F 33.5 °F 34.0 °F 76% 29.88 in 2.5 mi NW 13.8 mph - 0.09 in Rain , Thunderstorm Thunderstorms and Rain
7:09 AM 42.8 °F - 35.6 °F 76% 29.85 in 4.0 mi Calm Calm - 0.11 in Rain Light Rain
7:53 AM 41.0 °F 32.8 °F 37.9 °F 89% 29.80 in 10.0 mi SSE 16.1 mph - 0.13 in Rain Light Rain
8:53 AM 46.0 °F 44.8 °F 43.0 °F 89% 29.78 in 10.0 mi South 3.5 mph - 0.01 in   Mostly Cloudy
9:35 AM 53.6 °F - 46.4 °F 77% 29.79 in 10.0 mi SSW 12.7 mph 18.4 mph N/A   Mostly Cloudy
9:53 AM 53.1 °F - 46.9 °F 80% 29.78 in 10.0 mi SW 13.8 mph 19.6 mph N/A   Mostly Cloudy
10:13 AM 53.6 °F - 48.2 °F 82% 29.78 in 10.0 mi SW 10.4 mph 20.7 mph N/A   Mostly Cloudy
10:53 AM 54.0 °F - 48.0 °F 80% 29.77 in 10.0 mi SW 13.8 mph 20.7 mph N/A   Mostly Cloudy
11:16 AM 53.6 °F - 48.2 °F 82% 29.77 in 10.0 mi SSW 13.8 mph 20.7 mph N/A   Mostly Cloudy
11:43 AM 53.6 °F - 48.2 °F 82% 29.75 in 10.0 mi SSW 13.8 mph 18.4 mph N/A   Overcast
11:53 AM 55.0 °F - 48.0 °F 77% 29.75 in 10.0 mi SSW 9.2 mph - N/A   Overcast
12:21 PM 55.4 °F - 48.2 °F 77% 29.72 in 10.0 mi SW 15.0 mph 20.7 mph N/A   Mostly Cloudy
12:53 PM 55.0 °F - 48.0 °F 77% 29.70 in 10.0 mi SSW 11.5 mph - N/A   Mostly Cloudy
1:11 PM 53.6 °F - 48.2 °F 82% 29.69 in 10.0 mi SSW 9.2 mph 20.7 mph N/A   Overcast
1:53 PM 52.0 °F - 48.9 °F 89% 29.67 in 10.0 mi SW 6.9 mph - N/A   Overcast
2:53 PM 55.9 °F - 51.1 °F 84% 29.63 in 10.0 mi SSW 10.4 mph 17.3 mph N/A   Overcast
3:53 PM 57.0 °F - 51.1 °F 81% 29.61 in 10.0 mi WSW 4.6 mph - 0.00 in Rain Light Rain
4:33 PM 55.4 °F - 53.6 °F 94% 29.60 in 5.0 mi WSW 3.5 mph - 0.03 in Rain Light Rain
4:53 PM 55.9 °F - 53.1 °F 90% 29.60 in 8.0 mi Calm Calm - 0.03 in   Overcast
5:04 PM 55.4 °F - 53.6 °F 94% 29.60 in 8.0 mi Calm Calm - N/A   Overcast
5:53 PM 54.0 °F - 52.0 °F 93% 29.59 in 8.0 mi South 3.5 mph - 0.01 in   Mostly Cloudy
6:53 PM 54.0 °F - 52.0 °F 93% 29.58 in 9.0 mi SSW 5.8 mph - N/A   Clear
7:53 PM 52.0 °F - 51.1 °F 97% 29.57 in 3.0 mi South 4.6 mph - N/A   Clear
8:53 PM 52.0 °F - 50.0 °F 93% 29.56 in 10.0 mi South 5.8 mph - N/A   Scattered Clouds
9:53 PM 54.0 °F - 51.1 °F 90% 29.57 in 10.0 mi SSW 4.6 mph - N/A   Mostly Cloudy
10:53 PM 54.0 °F - 50.0 °F 86% 29.55 in 10.0 mi South 4.6 mph - N/A   Mostly Cloudy
11:53 PM 54.0 °F - 51.1 °F 90% 29.54 in 10.0 mi SSW 8.1 mph - N/A   Mostly Cloudy